Wind_Speed
67 67 68 68 68 68 69 69 70 71 72 73 73 74 74 75 75 76 77 79 79 80 80 80 81 81 82 84 84 86 87 90 91 91 90 88 85 82 77 73 69 65 61 56 54 56 53 49 50 50 49 49 51 53 52 51 50 44 39 34 32 34 33 29 27 28 31 32 33 33 33 33 32 31 33 33 32 31 30 30 29 28 28 27 25
67 68 69 69 70 71 71 71 72 73 74 74 75 75 76 77 77 78 79 80 81 82 82 82 83 83 84 85 86 87 89 91 92 91 90 87 84 81 76 72 68 64 61 58 58 57 53 52 52 50 50 49 50 52 51 51 49 44 38 32 31 35 34 30 28 28 32 33 32 33 32 32 31 29 31 32 31 30 30 29 28 27 27 26 23
68 69 70 71 72 72 73 73 74 75 76 76 77 77 78 79 80 80 81 82 83 83 84 84 85 85 86 87 88 89 91 93 93 90 87 85 82 77 75 71 68 65 63 63 62 58 55 55 50 46 49 48 49 50 50 52 49 43 36 30 32 37 36 32 29 28 31 33 33 33 32 31 30 30 31 31 30 30 29 29 27 26 26 25 22
70 70 71 72 73 74 75 75 76 76 77 78 78 79 79 80 81 82 83 83 84 84 85 86 86 87 88 89 90 91 93 93 91 88 84 83 78 75 75 71 69 69 67 67 63 58 54 50 45 44 47 47 49 49 51 53 49 42 33 29 34 38 38 34 28 27 30 32 32 33 33 31 30 29 30 30 30 29 29 28 26 25 25 23 20
71 71 72 73 75 76 76 77 78 78 79 79 80 81 82 82 83 84 84 85 85 86 86 87 88 89 90 91 92 93 93 91 88 85 83 82 78 77 75 71 70 68 67 64 58 55 48 41 42 44 46 48 50 51 53 53 49 41 32 31 35 38 39 36 27 25 30 31 31 32 32 30 28 28 29 29 29 29 28 27 25 24 24 22 19
73 73 74 75 76 77 78 79 79 79 80 80 81 82 83 84 85 85 86 86 87 88 88 89 90 90 91 93 94 93 91 88 85 83 82 81 80 79 75 70 67 61 59 56 54 50 40 39 43 45 47 49 52 54 56 56 48 38 31 31 36 39 39 35 27 26 29 31 31 31 30 28 27 28 28 28 28 28 27 26 25 24 23 21 19
75 76 77 77 78 79 79 80 80 81 81 82 83 84 85 85 85 86 87 87 89 90 90 91 92 93 93 93 92 91 89 86 84 84 83 82 82 80 74 69 62 56 53 52 53 46 39 41 44 46 49 50 54 57 59 58 45 34 31 32 37 40 40 34 28 27 29 30 30 29 28 27 26 27 27 27 28 28 27 25 24 23 22 20 18
78 78 79 80 81 81 81 82 82 82 82 83 84 85 85 86 86 87 88 89 91 91 92 93 93 92 92 91 90 88 87 87 86 85 85 83 81 78 73 67 61 57 56 57 51 43 41 43 45 47 50 53 56 58 60 56 41 32 32 34 39 40 40 35 29 28 30 29 28 27 26 26 25 25 27 27 27 27 26 25 23 23 22 20 18
80 81 81 82 83 83 83 83 84 84 84 85 85 86 87 87 88 89 90 91 91 92 93 93 92 90 88 88 87 87 88 87 85 83 82 79 75 73 68 64 62 62 62 57 46 42 45 44 47 49 51 55 58 59 59 51 39 32 32 35 39 40 41 38 31 30 31 30 27 26 25 25 25 25 26 27 27 26 25 24 23 22 21 19 18
83 84 84 85 84 85 85 85 86 85 85 85 85 87 88 89 90 91 91 90 91 92 91 89 87 85 85 86 86 85 83 78 74 73 70 68 66 63 62 61 63 64 58 47 42 44 46 46 48 50 53 56 58 62 59 48 40 34 31 33 37 40 41 40 34 31 31 31 29 26 24 25 25 25 26 26 26 26 25 23 22 22 21 19 18
86 86 86 87 87 86 86 87 86 85 85 86 87 88 89 90 90 90 89 89 89 88 85 83 82 82 84 85 81 76 73 70 69 66 60 61 62 62 63 62 63 61 49 41 43 45 46 47 49 52 54 57 60 63 58 47 39 32 30 33 37 41 43 42 38 33 32 33 31 27 25 25 25 25 26 26 26 25 24 23 22 22 21 20 19
88 88 89 89 89 89 88 87 86 86 86 87 87 88 89 90 89 89 89 88 86 85 84 82 81 83 83 81 74 71 70 70 69 61 58 63 66 64 62 59 58 51 42 42 44 45 47 48 51 54 55 59 62 60 54 46 39 34 32 35 39 43 43 43 40 35 34 34 31 27 25 26 25 25 27 26 25 25 24 22 22 22 21 20 19
89 90 90 91 91 90 89 87 87 87 87 88 88 89 90 90 90 89 87 84 83 84 83 81 81 82 82 78 74 71 69 68 66 61 63 69 64 58 56 56 53 43 39 44 45 47 49 50 53 57 59 59 57 53 49 45 41 39 37 37 41 43 44 43 40 35 35 36 32 27 26 26 25 26 27 26 25 24 24 22 22 22 21 20 20
90 91 91 91 91 90 88 88 88 88 88 89 89 90 90 89 88 85 83 81 81 81 81 82 80 78 77 72 68 67 66 65 63 63 65 63 57 57 57 56 52 44 42 45 48 50 52 55 55 54 55 51 48 47 46 44 43 41 39 39 41 42 42 40 37 33 33 36 36 31 28 26 26 27 27 25 24 24 24 23 22 22 21 20 20
92 92 92 91 90 89 88 87 87 87 88 89 90 89 89 87 82 79 79 78 75 75 77 77 74 71 70 66 65 66 66 63 60 61 61 59 59 60 58 55 52 48 46 46 48 50 51 53 51 46 44 42 43 44 43 44 43 41 39 38 38 38 37 35 33 31 31 33 35 34 30 27 26 28 26 25 24 24 24 23 22 23 22 21 20
92 92 92 91 89 88 87 86 87 86 86 86 85 83 80 76 74 77 75 71 69 68 67 68 68 67 66 65 64 62 63 62 59 58 58 59 59 57 55 52 49 46 45 46 46 49 49 47 46 42 40 40 42 44 44 43 42 39 37 36 35 34 33 32 30 30 29 30 30 31 29 27 28 28 25 23 24 24 25 23 23 23 23 22 21
90 89 89 89 88 88 88 88 87 85 84 81 78 75 71 71 75 76 70 68 68 62 57 60 65 63 57 53 51 53 56 55 55 56 56 56 53 51 49 46 44 42 42 43 43 46 47 44 44 44 43 43 44 46 44 42 39 35 33 33 31 30 30 30 29 28 28 27 26 27 28 28 29 27 23 22 23 25 25 24 23 23 24 24 22
91 90 89 89 89 88 87 86 85 83 80 75 69 68 70 75 76 71 68 71 68 59 53 55 60 57 48 44 46 52 51 51 55 57 53 51 47 43 41 40 41 41 42 43 44 45 46 46 47 48 49 47 46 46 43 39 35 30 29 29 28 28 28 27 27 26 26 25 25 27 29 30 28 24 22 22 23 24 25 24 23 24 24 25 24
95 94 93 92 90 87 85 83 80 75 71 68 68 72 77 77 73 73 76 75 67 56 50 52 55 51 46 46 49 52 53 55 56 52 48 44 40 38 39 41 40 39 41 44 47 48 50 51 52 53 51 49 49 46 42 36 29 26 26 26 25 25 25 25 24 23 23 24 26 28 30 29 25 22 22 22 23 24 24 24 23 24 24 25 26
97 98 98 97 95 92 91 87 82 78 78 80 82 84 86 82 78 80 80 74 64 52 48 52 52 46 46 50 51 52 55 54 49 46 44 38 36 36 38 40 39 39 42 45 47 50 53 55 55 54 51 50 50 44 38 32 24 21 22 23 23 22 22 23 22 21 22 24 27 28 29 27 23 22 21 22 23 24 24 24 24 24 25 26 27
100 100 100 100 99 97 93 89 87 87 87 86 84 82 81 82 82 80 76 69 60 52 52 55 52 47 47 50 51 50 48 43 39 40 38 34 34 34 34 36 39 42 45 46 47 50 54 57 56 54 53 49 46 42 36 30 23 18 17 18 19 19 20 20 19 20 22 25 27 27 26 24 22 22 21 22 24 24 24 24 24 25 26 27 28
102 102 102 100 99 95 88 83 80 77 76 74 74 75 75 75 74 70 65 61 57 55 55 54 51 49 47 48 48 43 38 36 34 35 34 34 36 35 35 38 42 44 46 47 49 53 55 55 52 53 54 45 43 44 38 31 24 18 16 16 17 18 18 18 18 18 20 24 25 24 24 22 21 22 22 23 24 25 25 25 26 26 28 28 29
101 100 99 97 94 90 82 76 70 67 68 66 64 68 69 68 65 63 61 59 60 57 54 51 48 47 43 43 44 38 37 42 39 36 36 38 40 39 40 42 43 44 45 48 52 52 50 50 51 54 51 42 43 44 37 32 25 20 18 16 17 19 19 19 19 18 20 23 22 22 22 21 21 22 23 24 25 26 27 27 27 28 29 30 30
97 95 93 92 88 85 79 73 72 68 66 62 60 61 62 62 59 59 59 58 57 54 52 48 41 40 38 38 43 44 49 51 43 40 41 41 40 39 40 42 43 45 47 48 48 44 45 50 50 48 46 45 45 39 34 32 27 23 20 18 19 21 22 21 21 20 21 24 23 22 23 22 21 22 23 24 25 27 28 29 29 29 30 31 32
91 89 87 85 82 81 77 73 71 67 62 58 55 55 53 52 52 52 53 50 48 46 47 43 37 37 36 39 50 57 59 52 43 44 46 42 42 40 39 41 42 44 45 42 40 43 49 50 44 42 45 48 46 39 36 35 30 25 22 21 21 23 24 23 23 23 24 26 25 24 24 23 23 23 25 25 26 27 28 30 32 32 32 33 34
83 80 77 76 76 75 72 66 61 56 53 52 52 52 49 48 49 50 48 45 44 45 45 41 39 41 41 46 54 58 57 51 49 52 51 48 48 44 39 40 41 40 39 37 40 47 50 45 42 45 49 50 49 44 39 35 32 27 23 23 22 23 25 25 26 27 27 28 27 26 25 25 26 27 28 29 29 29 29 30 32 34 36 36 36
76 73 69 68 67 68 66 63 60 55 51 52 54 52 49 48 47 48 45 43 44 42 37 36 40 42 42 46 50 52 53 55 57 57 56 53 49 46 44 42 39 35 35 39 45 48 44 42 46 51 51 51 49 44 38 35 32 28 26 24 24 23 24 25 26 26 26 29 29 28 29 30 31 31 31 31 32 32 32 32 32 34 38 39 39
70 67 65 64 63 65 65 63 61 58 55 54 52 49 49 47 46 46 43 38 35 31 29 33 42 44 41 42 46 49 50 53 56 57 56 53 48 46 46 45 40 37 38 43 46 43 41 44 48 49 48 47 45 39 36 35 31 29 29 27 25 25 24 25 26 25 26 31 32 31 33 35 35 35 35 35 35 35 34 34 34 35 38 40 39
67 64 63 62 61 61 62 61 59 56 54 52 49 48 49 45 44 44 40 36 36 37 38 43 49 49 45 44 45 48 49 50 51 50 48 45 41 39 40 42 42 42 43 44 40 37 41 43 44 44 41 37 34 31 30 32 31 29 30 30 29 29 29 28 29 31 34 38 38 37 39 39 40 40 39 38 38 37 36 34 34 36 39 39 38
64 63 60 56 53 54 58 58 54 51 49 48 46 46 45 41 38 39 40 43 47 50 48 46 48 47 47 45 43 44 44 44 43 39 37 36 35 36 39 40 41 42 40 37 33 34 39 39 37 35 31 24 22 22 21 25 27 27 29 31 32 32 33 34 34 35 38 42 43 42 42 42 43 43 42 41 40 38 36 34 34 36 40 39 38
61 60 58 53 51 54 58 55 50 48 49 49 43 36 36 40 43 46 49 51 52 50 43 38 36 39 43 41 38 37 36 35 34 33 32 33 34 35 38 36 34 35 31 29 29 30 32 31 29 28 28 26 24 24 22 23 28 29 27 29 33 34 35 38 38 38 40 44 45 46 45 44 44 43 41 40 38 37 36 35 35 36 40 41 40
60 59 58 54 53 56 58 56 51 50 52 49 42 35 37 49 53 51 51 51 48 42 35 33 33 38 44 41 38 38 36 35 34 32 30 31 33 33 33 29 29 30 26 26 25 22 24 26 26 29 29 27 26 26 26 25 27 31 30 30 33 33 34 35 34 34 37 41 44 44 43 42 41 40 39 38 38 38 37 36 35 35 38 40 40
59 58 56 52 52 56 57 54 51 51 52 48 45 45 48 56 57 51 52 55 52 48 45 42 39 42 45 42 41 41 39 40 39 36 32 31 31 30 28 26 27 29 26 27 25 25 28 27 28 31 28 26 23 21 21 18 19 30 34 31 27 25 25 25 25 27 29 33 36 37 36 35 36 37 37 37 38 37 36 35 34 34 35 36 36
58 56 54 51 52 56 56 53 52 54 55 50 47 47 50 55 56 55 57 57 55 54 51 45 41 39 39 38 38 38 38 42 41 38 36 36 34 28 26 27 29 31 31 33 31 34 35 31 31 31 27 24 21 15 13 9 15 27 30 24 19 18 19 21 24 25 27 29 31 34 34 33 34 35 34 34 35 34 33 34 35 34 35 35 35
56 53 51 47 50 55 54 51 51 53 55 52 45 45 51 55 55 55 54 51 49 45 39 36 35 34 36 35 35 36 38 40 41 41 40 38 35 31 32 35 37 38 42 40 36 37 36 32 32 31 27 24 20 14 9 8 17 24 23 20 19 19 20 21 23 25 28 28 28 31 33 33 32 33 33 32 33 32 30 31 33 33 33 35 36
52 49 47 43 45 50 49 46 46 48 52 52 48 48 53 54 53 52 48 43 40 35 32 32 32 32 34 35 35 38 39 41 45 47 44 42 41 41 43 45 43 41 43 42 38 36 34 31 30 28 26 24 20 16 11 12 20 25 23 23 23 22 22 22 24 26 28 28 26 26 28 31 32 31 33 32 31 30 27 27 31 33 34 34 36
47 44 42 35 33 37 38 38 39 44 49 50 50 51 52 50 48 48 45 39 35 32 33 35 35 36 37 37 38 39 40 42 44 44 41 41 43 45 45 43 39 38 38 38 37 33 32 31 29 26 25 23 22 21 16 14 20 25 23 22 22 23 24 24 26 29 29 27 25 22 20 25 31 33 34 33 30 28 28 28 30 32 35 35 36
45 41 35 25 26 33 38 41 42 47 50 49 50 51 48 46 45 45 44 39 33 31 32 34 35 36 37 38 39 40 41 41 41 39 36 37 39 41 41 36 32 32 32 32 31 29 29 28 27 26 25 24 22 21 18 14 17 22 23 22 20 22 23 25 29 32 30 26 24 20 15 18 29 34 34 33 32 31 30 29 29 29 30 33 36
43 38 30 25 30 39 47 51 50 51 51 49 49 48 44 41 42 43 44 40 35 33 33 34 34 35 38 39 40 42 42 40 38 37 37 39 40 40 37 30 26 27 26 26 26 27 28 27 27 25 23 24 22 22 21 18 17 19 22 22 21 21 21 25 29 30 28 24 22 20 15 17 24 27 28 31 33 35 34 31 29 29 30 29 31
39 31 24 27 35 45 54 54 50 48 46 46 46 46 45 44 44 45 46 44 41 40 39 40 40 42 42 40 40 40 38 38 38 38 40 40 39 37 32 26 23 25 25 25 26 28 28 29 30 27 24 25 25 25 26 26 24 23 24 23 23 24 24 27 28 26 25 24 22 19 18 20 20 19 24 29 31 34 35 34 32 30 31 31 29
32 23 23 33 42 49 53 51 48 48 45 45 44 44 45 46 46 46 47 47 45 44 44 46 46 45 42 38 36 37 37 40 41 41 41 40 37 33 29 25 23 26 28 28 28 30 30 30 32 31 27 27 28 28 29 30 29 27 26 26 29 30 29 28 26 24 23 23 22 19 17 16 14 13 21 26 29 31 32 34 34 32 32 33 33
24 21 26 37 44 45 46 46 46 47 45 44 44 42 42 43 42 42 43 44 44 43 43 46 46 43 42 40 39 40 41 42 42 41 40 38 36 32 28 25 25 28 31 32 32 32 33 33 33 33 31 30 31 32 32 32 32 31 30 30 32 33 30 26 26 26 25 24 21 19 16 14 12 11 16 23 28 31 31 33 35 34 33 32 34
20 21 30 40 42 41 43 44 44 43 42 43 42 41 40 39 37 35 36 38 38 38 41 46 45 43 43 43 42 42 42 42 43 42 39 36 34 31 28 26 27 29 31 33 34 34 36 36 37 37 36 34 34 34 34 34 33 33 33 33 33 34 31 28 29 28 28 26 21 18 17 16 15 15 17 21 25 28 30 33 34 33 32 31 32
29 31 37 41 40 38 40 41 42 43 42 42 41 41 41 40 38 35 33 31 31 34 41 46 46 45 44 44 45 45 46 46 45 42 39 36 33 30 29 28 29 29 30 33 35 37 38 39 39 39 39 38 36 36 36 35 35 34 34 36 35 33 29 30 31 29 28 27 23 20 18 19 19 21 24 26 27 27 28 30 31 31 32 32 32
35 38 39 33 30 34 37 38 40 41 42 41 39 41 42 42 41 41 40 38 37 38 43 46 48 49 50 50 51 51 51 51 49 46 42 37 32 30 30 31 31 31 31 33 35 37 39 40 40 40 40 40 39 38 39 39 38 38 39 40 36 30 28 30 32 31 29 27 26 25 24 25 24 24 27 28 29 29 27 26 26 27 31 33 34
33 35 33 25 25 33 39 40 40 41 41 39 37 39 39 38 39 40 43 45 46 47 49 51 53 54 54 55 54 55 55 54 51 47 43 38 33 31 31 32 33 34 33 34 35 37 38 40 41 41 41 41 41 41 41 41 41 42 42 40 33 28 28 30 30 30 30 29 29 31 32 31 30 29 28 28 30 31 29 28 27 26 27 28 32
30 29 28 26 29 36 41 41 39 39 40 40 39 38 36 35 36 37 38 41 44 48 50 52 52 52 53 53 53 54 54 52 49 45 41 38 35 33 32 33 35 36 36 37 37 38 39 40 40 41 42 42 43 44 44 43 43 41 38 34 30 29 31 31 30 30 32 32 33 34 36 35 33 34 33 31 33 34 34 34 35 35 35 34 36
28 26 27 30 34 39 43 42 39 37 39 41 39 38 36 36 37 37 37 39 41 42 43 44 45 46 48 48 48 49 48 47 45 42 39 37 34 32 32 33 35 37 39 39 40 40 41 41 42 43 44 43 43 43 44 43 40 36 33 30 29 31 32 32 30 31 35 36 36 36 38 39 39 38 38 38 37 37 39 41 41 41 42 43 44
33 29 29 31 34 38 41 41 39 39 40 40 40 40 39 37 36 34 35 37 39 40 41 43 43 43 43 45 46 46 46 45 43 40 39 36 33 30 29 30 32 34 36 38 39 40 40 41 41 42 43 42 42 42 41 39 36 33 31 29 28 30 31 30 28 29 34 37 37 38 38 40 43 43 42 43 43 42 43 46 47 46 46 47 48
40 35 34 35 35 37 38 37 38 40 41 41 43 43 40 38 35 31 32 35 38 41 44 45 44 43 42 43 44 45 45 44 42 39 38 35 32 29 27 26 25 26 27 29 30 32 33 35 37 39 40 40 40 39 36 34 33 31 29 27 27 28 29 28 26 25 31 36 37 39 40 41 44 46 45 45 46 47 47 48 50 51 51 51 52
44 40 41 43 42 39 37 38 41 41 38 37 39 40 40 40 37 32 32 35 38 40 43 43 43 43 43 42 41 42 43 43 41 39 37 35 32 29 27 24 23 22 23 24 25 27 29 31 33 35 35 35 34 32 31 30 29 28 27 26 26 27 28 28 27 25 28 32 34 37 40 42 44 47 48 48 49 50 51 51 51 52 52 53 55
Wind_Direction
284 285 286 286 287 287 288 289 290 290 291 292 292 293 294 294 295 295 296 297 297 298 299 299 300 301 301 302 302 303 304 305 306 307 308 308 307 305 305 305 305 304 304 303 303 306 304 301 305 302 296 293 293 293 294 300 306 306 304 299 294 290 288 289 291 290 285 286 289 290 292 293 297 302 306 311 314 313 308 303 301 302 305 305 301
284 285 286 286 287 287 288 289 290 290 291 291 292 293 293 294 294 295 295 295 296 297 298 299 300 300 301 301 301 302 303 304 306 307 307 307 306 305 304 304 304 303 302 301 302 304 301 299 302 296 290 289 289 291 293 302 307 307 306 302 295 290 289 288 286 285 283 284 286 288 290 292 294 300 305 310 313 312 306 301 299 301 305 305 299
284 285 286 287 287 288 288 289 289 290 290 291 292 292 293 293 294 294 295 295 296 297 298 299 299 300 300 300 301 301 302 304 305 306 306 306 305 305 304 304 303 301 300 300 301 302 300 299 297 286 285 287 285 288 294 304 308 307 305 299 292 289 291 291 288 283 280 281 284 286 288 291 293 298 303 308 312 310 304 298 298 301 304 303 296
283 284 286 287 287 288 288 289 289 289 290 290 291 292 293 293 294 294 294 295 296 297 298 298 299 299 300 300 300 301 302 304 305 305 306 305 304 305 305 303 301 300 298 299 301 303 302 298 291 281 281 284 283 288 297 306 308 307 301 292 288 287 290 292 290 283 279 279 282 285 287 289 292 297 302 307 311 308 301 296 296 300 303 301 292
282 283 285 286 287 287 288 288 288 288 289 290 291 291 292 293 293 293 294 295 296 297 297 298 298 299 299 299 300 301 302 304 305 305 305 304 302 304 304 302 301 300 299 300 302 305 304 293 284 279 278 279 281 289 299 307 308 305 298 288 286 285 287 291 289 282 277 276 281 284 286 288 291 296 301 307 309 306 298 294 295 298 302 298 287
280 282 283 285 286 286 287 287 287 288 288 289 290 291 291 292 293 294 295 295 296 296 297 297 298 298 299 300 300 301 302 304 306 305 304 303 301 302 302 302 302 301 301 302 305 308 301 286 280 276 276 276 281 290 300 307 307 302 297 289 285 283 286 290 285 277 275 274 279 282 284 286 290 295 301 305 306 303 295 291 293 297 300 294 284
280 281 282 284 284 285 286 286 286 287 288 289 290 290 291 292 293 294 295 295 296 296 296 297 298 298 299 299 300 301 303 305 305 304 303 301 301 301 300 301 301 301 301 303 307 305 291 281 278 275 276 278 283 292 301 307 305 298 295 288 284 283 286 289 281 271 270 271 276 279 282 285 288 294 300 303 303 299 292 289 291 295 298 290 281
279 280 281 282 283 284 284 285 286 287 288 288 289 290 291 292 293 294 294 295 295 296 296 297 297 298 299 299 300 302 304 304 303 302 301 299 299 299 298 298 297 298 300 304 305 297 285 279 277 275 276 281 286 293 301 304 300 292 290 288 285 284 287 288 279 270 268 268 273 276 279 283 284 291 299 300 298 294 288 287 289 293 296 288 279
279 280 280 281 282 283 284 285 286 287 287 288 289 290 290 291 292 293 294 294 295 296 297 297 296 298 300 300 301 303 303 302 301 301 299 298 298 298 297 296 294 297 302 306 300 288 284 279 276 275 276 283 288 294 301 301 294 286 281 282 283 283 284 284 279 271 269 265 267 274 276 279 281 287 296 296 293 290 285 285 287 292 294 285 277
278 279 280 280 281 282 284 285 287 287 287 288 289 289 290 291 291 292 294 294 295 296 296 296 297 299 301 302 303 304 303 302 302 301 299 299 299 298 297 295 294 298 303 303 291 282 281 276 274 276 278 283 288 294 299 298 293 286 278 278 281 282 281 282 279 271 269 265 263 270 272 274 278 284 292 291 287 285 282 283 284 290 292 283 274
278 278 279 280 281 282 284 286 287 287 288 288 288 289 289 290 291 292 293 294 294 295 297 298 300 301 301 302 304 304 303 303 303 300 298 298 298 298 297 295 295 299 301 294 284 279 276 272 271 276 281 285 289 293 295 295 292 286 281 281 280 280 279 280 280 271 266 264 263 266 266 269 274 281 288 285 282 281 278 280 282 288 291 282 274
277 278 278 279 281 283 285 286 287 287 287 287 287 288 289 290 291 292 292 293 293 295 298 300 301 300 299 301 303 302 301 300 299 296 295 298 298 297 297 297 297 300 297 288 280 273 270 270 273 277 282 286 290 292 294 293 288 281 277 277 276 275 276 278 280 273 261 259 262 263 261 264 270 278 284 280 277 277 275 277 280 285 290 282 274
277 277 278 280 281 283 285 285 286 286 286 286 287 287 289 289 290 291 292 293 294 296 297 298 299 298 298 300 301 300 298 296 295 292 294 298 297 297 298 299 300 298 290 282 273 268 268 271 276 280 282 287 291 292 292 290 285 281 276 272 272 274 276 278 279 272 260 255 257 260 259 259 265 275 278 274 273 274 272 273 277 282 288 283 274
277 278 279 280 282 283 284 284 284 285 285 286 286 287 288 289 290 290 292 294 295 296 296 296 296 297 299 300 299 297 296 294 292 290 294 298 297 297 299 300 300 294 283 274 269 269 270 275 280 283 286 290 292 293 291 288 286 284 280 276 276 277 279 279 277 271 262 257 256 258 259 256 262 273 272 268 270 271 270 271 274 279 285 284 275
277 278 279 281 282 283 283 283 283 284 285 285 286 287 287 288 289 291 294 295 295 298 298 297 297 297 298 298 297 293 292 292 289 291 296 299 297 298 298 299 299 294 286 281 278 278 278 282 286 288 293 297 298 296 292 290 289 288 286 283 282 282 281 278 275 271 265 261 258 258 258 254 262 269 265 264 268 269 268 268 271 277 282 284 276
277 278 279 280 281 281 281 281 283 284 284 285 286 287 287 288 290 292 293 293 295 298 297 297 297 296 296 295 294 290 287 287 287 293 298 298 297 298 299 297 295 293 290 289 288 287 287 289 292 295 301 302 302 301 297 295 293 290 289 287 286 284 281 277 274 272 267 263 260 258 254 253 261 263 258 262 267 267 266 265 269 274 279 283 278
276 277 278 278 278 278 279 280 281 283 284 284 286 287 287 288 290 290 290 294 297 296 292 291 293 294 294 292 292 292 288 286 290 298 298 296 299 299 298 295 292 293 293 292 290 289 291 294 296 300 305 303 302 301 299 297 294 294 292 289 287 284 281 277 274 270 267 262 256 252 251 253 258 256 255 262 265 266 264 263 267 271 276 280 279
275 275 275 276 277 277 279 280 282 283 284 284 285 286 287 288 287 286 291 297 297 295 290 287 290 290 289 288 290 293 290 290 296 299 297 298 300 298 297 296 294 296 297 296 295 294 297 299 300 302 304 303 302 301 298 294 293 296 295 290 286 283 280 277 273 269 266 260 251 247 249 253 254 251 255 262 264 264 263 262 264 268 273 277 279
274 274 275 276 277 278 280 282 283 283 283 283 284 285 287 287 285 286 292 295 293 291 287 285 289 286 280 285 290 290 290 294 297 295 297 299 298 297 296 295 295 296 297 298 299 302 301 300 301 302 303 305 304 301 296 291 291 296 294 289 284 282 279 275 272 268 265 259 251 248 251 252 249 250 257 261 263 261 260 260 262 266 270 275 278
274 275 275 276 277 278 280 281 281 280 281 282 282 284 284 282 283 287 289 289 287 284 282 285 288 282 279 286 289 289 291 295 294 293 296 295 295 297 293 290 292 293 296 299 301 301 299 299 300 301 305 308 306 301 295 288 286 294 293 290 286 281 277 274 271 267 265 260 255 252 251 249 247 252 258 261 263 259 257 259 262 265 268 272 276
274 274 275 277 278 279 280 281 282 282 282 282 282 282 282 279 280 285 285 282 280 278 279 281 282 282 283 286 288 291 294 297 294 293 292 291 297 296 291 290 291 292 296 299 299 298 296 298 298 301 308 309 305 303 296 284 278 285 290 292 291 284 278 274 271 268 266 262 256 252 248 245 249 254 259 262 262 258 257 259 261 264 267 270 273
274 275 276 278 279 280 281 282 283 282 282 282 281 280 281 281 279 280 280 275 274 277 278 278 278 282 285 285 286 287 290 295 293 290 289 294 299 293 291 293 293 295 296 296 296 296 295 295 297 302 308 305 302 303 295 281 270 272 281 287 291 288 280 274 270 267 265 262 256 250 246 246 251 255 259 262 262 260 260 261 262 263 266 269 271
274 276 277 278 279 281 281 281 281 281 281 281 279 280 282 281 278 276 275 273 274 277 275 276 276 278 282 282 281 276 280 291 287 282 287 296 298 292 292 294 295 295 292 292 292 293 294 296 299 301 301 299 302 303 294 281 266 261 271 276 283 282 274 269 269 267 263 261 255 250 248 249 253 256 260 262 263 263 264 265 265 264 265 267 269
275 276 277 277 278 279 278 278 279 281 282 280 279 282 284 280 277 276 276 275 277 277 272 271 271 274 276 274 274 274 279 285 277 274 286 294 296 293 292 292 293 293 290 290 289 291 299 300 300 299 297 299 304 301 292 284 266 257 266 271 273 271 266 265 268 268 263 258 254 250 250 251 254 258 260 262 266 267 268 268 267 266 266 266 268
274 276 277 278 278 279 278 278 278 279 279 279 280 282 286 281 277 277 278 278 279 277 271 267 266 269 269 268 275 278 280 280 269 272 284 289 292 292 290 291 291 292 290 290 290 295 301 299 297 298 296 299 302 297 292 285 269 257 261 270 270 267 265 261 262 266 263 257 252 250 250 252 255 260 263 266 271 272 271 271 270 268 267 268 268
275 277 278 279 279 279 278 278 277 275 274 275 277 281 285 281 278 278 277 278 279 278 274 269 265 265 267 272 276 277 278 276 269 273 279 280 284 285 284 287 289 289 287 288 292 296 298 295 295 297 297 298 297 293 292 285 271 257 253 264 268 268 269 264 261 261 260 257 253 252 254 258 263 266 267 270 274 277 275 274 273 271 269 268 269
276 276 277 277 277 278 278 277 276 275 273 273 276 280 280 279 278 276 276 280 280 278 276 274 272 272 276 277 276 275 275 274 273 275 278 278 279 277 278 283 284 282 281 286 294 298 297 295 296 299 299 299 296 291 290 285 273 255 247 256 259 260 266 265 261 256 256 259 258 259 264 269 271 272 273 273 276 279 278 276 275 273 270 270 270
276 276 276 277 276 279 281 279 278 277 276 276 278 277 276 276 275 274 278 280 273 266 266 270 274 277 279 277 274 274 273 274 275 276 277 279 277 274 275 278 276 276 281 290 297 298 298 298 299 303 301 300 297 290 286 284 274 257 247 250 252 253 258 261 257 253 258 266 267 268 272 274 274 276 277 276 278 279 279 275 272 272 271 272 272
276 276 277 278 281 283 283 280 279 277 277 278 277 276 276 275 271 272 276 272 263 263 266 270 274 277 277 273 270 273 275 277 277 275 276 277 275 274 274 274 274 277 283 290 296 297 296 298 302 305 302 300 298 291 287 283 277 265 254 252 251 249 253 258 260 258 261 268 271 273 275 275 275 276 278 278 279 279 277 272 268 268 271 273 273
276 277 277 279 282 282 280 280 280 279 278 277 276 278 279 272 264 266 269 267 268 271 273 273 275 277 274 270 271 274 276 275 275 275 275 276 275 274 272 272 275 279 284 289 294 296 295 298 304 302 291 284 284 287 289 287 283 275 266 263 260 255 253 257 262 262 261 264 267 272 274 274 275 276 278 279 279 278 275 270 266 265 267 270 272
276 277 278 278 278 276 277 278 279 280 279 278 278 278 277 270 265 267 270 271 274 274 273 270 268 270 268 268 270 273 272 269 269 270 269 270 271 270 271 273 276 280 283 287 294 297 295 297 297 285 273 268 269 273 277 286 289 283 276 272 268 265 262 262 265 264 262 263 266 271 274 274 274 275 276 277 277 276 274 272 268 263 263 266 268
276 277 278 279 278 277 277 278 279 280 278 276 272 263 262 266 268 271 274 277 277 274 270 264 256 258 263 267 266 268 271 270 269 270 267 267 267 266 270 271 274 276 276 282 290 288 282 282 275 266 266 270 272 271 273 281 283 279 280 278 271 267 267 269 270 268 265 266 268 271 273 273 273 274 273 274 275 275 274 273 270 264 262 265 267
276 278 280 282 281 279 280 281 281 279 276 273 267 258 256 261 265 268 272 276 275 274 273 269 263 260 264 266 259 256 264 271 273 273 270 268 269 269 266 265 272 273 273 280 278 264 262 262 259 259 263 269 273 275 283 285 273 274 279 280 273 267 268 273 275 274 271 271 272 271 270 271 273 274 272 272 273 273 274 274 271 265 262 263 264
276 279 281 282 282 282 283 283 282 279 276 273 268 263 261 263 263 265 268 271 272 275 276 274 271 264 262 262 254 249 258 267 269 273 274 270 269 268 261 266 276 275 276 282 270 257 258 256 254 257 258 261 263 269 288 278 256 270 278 276 270 267 268 274 279 279 275 274 275 274 272 273 275 275 272 272 272 273 275 276 273 268 261 259 258
278 281 282 282 282 284 285 284 281 278 275 271 263 257 260 263 264 267 270 271 273 275 274 272 267 260 258 259 257 254 254 257 262 273 279 271 265 266 267 275 279 276 278 280 267 255 254 253 254 254 251 253 251 255 274 254 251 268 278 276 272 272 270 272 281 281 277 273 270 273 276 276 275 273 272 273 272 272 273 273 272 269 264 259 257
279 282 284 284 283 285 287 286 281 275 268 265 260 256 259 263 266 270 271 273 275 271 263 257 251 252 260 263 259 255 254 258 266 274 273 265 264 270 275 281 280 276 274 270 262 254 246 245 250 248 248 251 240 234 250 261 261 264 270 275 276 275 272 274 283 283 278 274 268 268 274 279 278 274 273 273 271 268 262 260 263 267 267 264 260
280 281 283 285 283 284 284 281 275 267 261 261 263 262 263 264 265 267 268 271 274 267 259 255 251 256 264 265 261 259 263 266 271 274 270 265 267 271 277 282 277 271 266 260 255 249 240 240 244 243 245 246 233 225 235 257 261 259 260 268 273 273 272 274 282 284 280 275 273 268 267 278 282 277 273 270 265 260 254 253 259 266 270 269 264
280 278 278 272 270 276 273 267 261 257 259 262 263 263 263 262 263 267 269 270 269 263 260 260 263 265 268 266 262 264 269 269 270 272 271 270 272 277 283 285 274 263 258 253 247 240 236 237 238 239 237 235 231 222 224 247 260 261 261 261 267 271 272 276 283 286 282 276 273 268 257 266 275 277 277 272 261 254 253 253 256 259 265 268 267
279 279 275 256 253 261 261 259 256 253 255 259 260 262 260 259 261 264 266 265 262 258 256 258 263 268 269 266 264 265 266 265 265 266 268 273 282 291 295 289 269 254 250 244 236 232 232 231 232 236 231 226 227 220 222 239 248 257 262 262 268 271 275 283 287 286 280 274 269 262 246 241 256 266 269 269 261 254 253 252 255 258 255 258 263
281 279 269 253 250 253 257 258 255 251 253 256 258 261 262 261 260 259 260 260 257 253 251 254 262 268 266 261 257 256 258 260 263 267 274 283 293 299 297 284 260 242 238 235 230 228 227 227 229 231 229 225 226 226 229 237 242 251 259 264 268 267 275 285 286 282 277 273 267 255 240 230 236 248 256 262 262 257 255 253 257 261 255 252 256
281 267 247 249 250 250 256 258 254 253 256 258 259 259 261 260 260 260 260 259 255 252 253 255 262 264 259 255 253 255 261 266 269 276 285 293 298 297 289 274 251 233 231 231 229 227 224 223 226 228 230 229 229 231 233 237 243 250 257 266 270 269 277 281 274 272 272 267 261 254 247 232 221 242 260 266 267 263 259 254 255 260 259 256 256
277 261 244 247 250 252 256 257 256 256 258 259 258 257 258 259 260 261 261 259 256 255 255 255 257 257 256 258 260 263 269 273 278 284 292 295 295 291 280 262 244 232 230 230 228 225 222 219 221 224 226 228 229 232 235 239 244 250 257 268 273 274 277 271 261 263 264 261 254 246 242 232 214 226 255 264 269 268 262 257 256 260 262 261 259
250 245 242 244 249 253 256 256 257 258 259 259 257 257 256 256 258 260 260 258 255 255 252 251 254 256 258 260 264 268 271 277 283 288 291 291 289 283 270 255 243 234 231 230 227 223 221 219 220 222 224 226 229 233 237 241 246 251 259 268 275 277 272 260 256 258 258 256 246 231 230 233 226 222 235 247 253 258 258 257 256 257 257 258 259
230 231 236 241 247 251 253 255 257 258 258 257 256 257 256 255 256 257 258 255 252 252 250 251 255 257 259 262 266 269 272 277 282 286 287 285 281 272 262 255 247 241 236 233 227 223 222 221 222 225 226 229 232 236 240 244 248 253 262 271 275 272 259 250 251 250 251 249 236 227 228 228 225 217 222 230 232 237 246 255 258 256 254 254 256
227 228 233 239 246 250 252 253 254 255 255 255 256 257 258 257 255 254 254 253 250 248 249 252 255 257 260 264 267 270 273 278 281 283 283 280 274 262 256 254 250 246 243 238 232 228 226 226 228 230 232 234 237 241 245 249 254 258 266 273 272 263 249 245 246 244 246 244 233 232 231 228 227 221 223 228 232 234 238 250 258 260 260 258 256
225 226 229 232 241 248 251 251 250 252 255 257 257 256 256 255 256 255 255 255 254 252 252 254 255 258 261 264 267 270 274 278 280 280 278 275 269 257 251 252 251 250 248 245 242 238 235 235 236 237 240 242 245 249 254 257 262 267 271 271 263 254 250 246 241 239 241 242 237 235 233 231 229 227 229 231 234 236 234 238 244 248 253 252 251
224 223 223 222 230 239 246 249 248 250 255 258 257 256 255 254 255 256 257 258 258 257 256 256 258 261 263 265 268 271 273 275 276 276 274 271 266 257 249 248 249 250 250 250 249 246 245 245 246 248 250 253 255 257 261 263 267 270 270 266 255 246 246 244 238 235 239 242 240 236 235 233 229 226 229 231 233 234 233 234 237 238 242 244 247
223 219 215 219 228 238 245 248 248 250 254 256 255 254 254 256 257 257 257 257 257 257 258 259 263 266 267 268 270 271 272 273 272 271 270 268 265 260 255 251 248 249 250 251 252 252 253 254 256 259 260 261 262 263 265 267 268 266 263 260 253 245 244 243 239 235 236 240 241 239 236 232 230 229 230 233 234 233 232 233 235 238 243 247 249
225 216 211 219 232 241 246 247 247 251 254 253 253 254 256 258 260 258 254 253 254 258 262 265 268 269 269 270 271 272 272 271 269 268 267 266 264 262 261 258 254 253 253 253 255 256 258 260 261 263 264 265 266 267 268 268 267 264 259 256 250 246 246 247 244 240 237 238 241 242 240 234 231 233 235 236 238 238 236 234 235 237 240 244 247
226 217 212 221 230 238 244 245 245 249 252 251 251 252 255 257 255 250 248 252 256 261 266 269 270 270 273 274 273 272 271 270 268 267 266 265 262 261 261 261 261 261 261 261 261 262 264 265 265 265 267 267 268 268 268 268 267 264 259 254 247 244 248 250 249 245 239 238 239 242 243 239 235 235 236 236 237 239 239 237 237 238 239 241 243
226 219 218 224 230 235 241 244 244 246 247 249 250 251 254 255 250 243 245 253 259 264 267 269 270 271 274 276 275 273 271 270 268 267 267 265 261 260 260 261 263 264 267 270 272 273 273 271 270 269 269 268 268 267 268 269 269 266 261 254 245 241 248 254 252 247 241 237 237 239 241 241 240 238 237 237 236 237 238 239 240 241 243 245 245
Height
10901 10900 10899 10899 10898 10897 10896 10895 10894 10893 10891 10890 10888 10886 10884 10883 10881 10880 10878 10875 10873 10872 10871 10871 10871 10870 10869 10866 10864 10862 10859 10856 10853 10850 10847 10844 10841 10840 10839 10837 10836 10834 10833 10832 10831 10830 10828 10826 10826 10824 10822 10820 10817 10815 10813 10813 10812 10811 10810 10809 10809 10809 10808 10808 10808 10807 10806 10805 10804 10803 10803 10802 10800 10799 10798 10797 10795 10793 10791 10789 10788 10787 10786 10785 10784
10898 10897 10895 10895 10893 10892 10892 10891 10890 10888 10887 10885 10884 10882 10880 10878 10877 10875 10874 10871 10869 10867 10867 10866 10865 10865 10863 10861 10859 10856 10854 10851 10848 10845 10842 10839 10836 10834 10834 10833 10831 10830 10828 10828 10827 10826 10825 10823 10822 10820 10817 10815 10813 10811 10809 10809 10809 10807 10806 10806 10805 10805 10804 10805 10804 10804 10803 10802 10801 10800 10800 10799 10798 10797 10795 10794 10793 10791 10789 10787 10786 10785 10784 10783 10782
10894 10893 10891 10891 10889 10888 10887 10886 10885 10883 10882 10881 10879 10878 10876 10874 10872 10870 10868 10867 10865 10863 10862 10861 10860 10859 10857 10856 10853 10851 10849 10846 10843 10840 10836 10834 10831 10829 10829 10828 10827 10825 10824 10823 10823 10822 10821 10819 10817 10815 10813 10811 10808 10807 10806 10805 10805 10804 10803 10802 10802 10801 10800 10801 10801 10800 10800 10799 10798 10797 10797 10796 10795 10794 10793 10792 10791 10788 10786 10785 10784 10783 10782 10781 10781
10889 10889 10888 10886 10885 10884 10882 10882 10880 10879 10877 10876 10875 10873 10871 10869 10867 10865 10863 10862 10861 10859 10857 10856 10854 10853 10851 10849 10848 10846 10843 10841 10838 10835 10831 10828 10826 10824 10823 10823 10822 10820 10819 10817 10818 10817 10816 10814 10812 10810 10808 10806 10804 10803 10802 10802 10801 10800 10799 10799 10799 10797 10797 10797 10797 10797 10797 10796 10795 10794 10793 10793 10792 10791 10791 10790 10788 10786 10784 10783 10782 10781 10780 10779 10779
10885 10884 10883 10882 10880 10879 10878 10877 10876 10874 10872 10871 10870 10868 10866 10864 10862 10860 10858 10857 10856 10855 10852 10851 10849 10848 10846 10844 10842 10840 10838 10835 10833 10830 10826 10823 10821 10819 10818 10818 10817 10815 10813 10812 10813 10812 10811 10809 10807 10805 10804 10801 10800 10799 10798 10798 10797 10796 10796 10796 10795 10794 10793 10793 10793 10793 10794 10793 10792 10791 10790 10790 10789 10789 10788 10787 10786 10784 10782 10781 10780 10779 10778 10778 10777
10881 10880 10879 10878 10876 10875 10873 10872 10871 10870 10868 10867 10865 10863 10862 10859 10857 10855 10854 10853 10851 10849 10847 10845 10844 10843 10841 10839 10837 10834 10832 10830 10827 10824 10821 10818 10815 10814 10812 10812 10813 10811 10809 10808 10808 10808 10807 10805 10803 10801 10799 10798 10795 10794 10794 10795 10794 10793 10792 10792 10791 10790 10790 10790 10789 10790 10790 10790 10789 10788 10788 10787 10787 10786 10785 10785 10784 10782 10780 10779 10778 10777 10776 10776 10776
10876 10875 10874 10873 10871 10870 10869 10867 10866 10866 10864 10863 10861 10858 10857 10855 10853 10852 10850 10848 10845 10843 10841 10840 10839 10838 10836 10833 10831 10828 10826 10825 10822 10818 10815 10812 10810 10808 10807 10807 10808 10806 10805 10805 10804 10804 10803 10801 10799 10797 10795 10794 10792 10791 10790 10791 10790 10789 10789 10789 10787 10786 10786 10786 10786 10786 10786 10786 10786 10786 10785 10784 10784 10783 10783 10782 10781 10780 10778 10777 10776 10775 10775 10774 10774
10872 10871 10870 10867 10866 10864 10863 10863 10863 10862 10860 10858 10856 10854 10852 10850 10849 10847 10845 10843 10840 10838 10836 10835 10834 10833 10830 10827 10824 10822 10821 10820 10816 10813 10810 10807 10804 10802 10801 10802 10802 10801 10801 10801 10800 10799 10798 10797 10796 10794 10792 10790 10788 10787 10787 10787 10787 10786 10786 10785 10784 10783 10782 10783 10783 10783 10783 10783 10783 10783 10782 10782 10781 10781 10780 10780 10779 10777 10776 10775 10774 10774 10773 10773 10773
10867 10866 10864 10862 10860 10859 10858 10858 10858 10858 10856 10854 10852 10849 10847 10845 10843 10842 10840 10838 10835 10833 10831 10830 10829 10827 10825 10821 10818 10817 10816 10813 10811 10808 10804 10801 10799 10797 10796 10796 10795 10795 10796 10796 10796 10795 10794 10793 10792 10790 10789 10787 10785 10784 10783 10783 10783 10782 10781 10781 10780 10779 10778 10779 10780 10779 10779 10779 10779 10779 10779 10779 10778 10778 10777 10777 10776 10775 10774 10773 10772 10772 10771 10771 10771
10861 10860 10857 10855 10854 10854 10854 10854 10854 10853 10851 10850 10847 10845 10842 10839 10837 10836 10835 10833 10831 10828 10826 10824 10824 10822 10818 10815 10812 10810 10809 10807 10805 10803 10799 10797 10795 10794 10792 10791 10791 10790 10791 10792 10792 10791 10790 10789 10788 10786 10785 10783 10781 10780 10780 10779 10778 10778 10777 10777 10776 10775 10774 10775 10776 10776 10776 10776 10775 10776 10776 10776 10776 10775 10775 10774 10774 10773 10772 10771 10770 10770 10770 10769 10769
10856 10854 10850 10849 10849 10849 10849 10849 10849 10848 10846 10845 10842 10839 10836 10833 10832 10831 10830 10829 10826 10823 10820 10819 10818 10816 10812 10809 10806 10804 10804 10803 10801 10799 10795 10793 10791 10790 10789 10788 10787 10787 10788 10789 10788 10787 10786 10785 10784 10783 10782 10780 10778 10776 10776 10775 10774 10774 10773 10773 10772 10771 10770 10770 10772 10772 10772 10772 10772 10772 10772 10772 10773 10772 10772 10772 10771 10770 10770 10769 10768 10768 10768 10768 10768
10851 10847 10844 10843 10844 10845 10845 10844 10844 10842 10841 10838 10835 10833 10830 10829 10827 10826 10825 10824 10821 10818 10815 10813 10812 10810 10807 10804 10801 10800 10799 10798 10797 10795 10791 10789 10787 10786 10784 10783 10784 10784 10785 10785 10785 10784 10783 10782 10780 10780 10779 10776 10774 10773 10771 10771 10770 10769 10768 10768 10767 10767 10766 10766 10767 10768 10767 10768 10768 10768 10768 10769 10770 10770 10769 10769 10769 10768 10767 10767 10766 10766 10766 10766 10766
10843 10839 10839 10840 10840 10841 10841 10839 10838 10837 10834 10832 10829 10827 10826 10824 10823 10821 10819 10819 10817 10813 10810 10808 10807 10804 10801 10799 10796 10795 10794 10793 10792 10790 10787 10784 10783 10781 10779 10779 10780 10781 10782 10782 10781 10780 10779 10779 10778 10776 10774 10773 10771 10769 10767 10766 10765 10765 10764 10763 10763 10762 10762 10763 10763 10763 10762 10763 10764 10765 10765 10766 10767 10767 10767 10767 10766 10766 10765 10765 10764 10764 10764 10764 10764
10835 10833 10834 10835 10836 10836 10836 10834 10832 10830 10828 10826 10824 10822 10821 10820 10818 10816 10815 10815 10812 10809 10806 10802 10801 10799 10795 10793 10792 10790 10788 10788 10787 10786 10783 10780 10778 10777 10775 10775 10775 10777 10778 10779 10777 10777 10776 10775 10775 10773 10771 10769 10766 10764 10763 10761 10761 10760 10760 10759 10759 10759 10759 10759 10759 10759 10758 10759 10760 10761 10762 10762 10764 10764 10764 10764 10764 10763 10763 10762 10762 10762 10762 10762 10762
10828 10829 10830 10831 10832 10831 10829 10827 10825 10824 10822 10820 10818 10817 10816 10815 10813 10812 10811 10811 10809 10805 10800 10797 10796 10794 10791 10789 10787 10785 10783 10783 10783 10782 10779 10776 10773 10771 10771 10770 10770 10771 10772 10772 10772 10771 10771 10770 10769 10769 10767 10765 10762 10761 10759 10758 10757 10756 10756 10755 10755 10755 10755 10755 10755 10755 10755 10755 10756 10757 10758 10759 10760 10761 10761 10761 10761 10761 10761 10760 10760 10760 10760 10760 10760
10824 10825 10826 10826 10826 10824 10822 10821 10820 10819 10816 10814 10813 10812 10810 10809 10808 10807 10809 10809 10808 10805 10797 10791 10791 10789 10787 10785 10782 10780 10778 10778 10778 10777 10773 10770 10768 10767 10766 10765 10766 10766 10766 10767 10766 10765 10765 10764 10763 10763 10763 10762 10760 10758 10756 10755 10754 10753 10752 10752 10751 10752 10752 10752 10752 10751 10751 10751 10752 10754 10755 10756 10757 10758 10759 10759 10759 10758 10758 10758 10758 10758 10758 10758 10758
10819 10821 10821 10819 10818 10817 10815 10815 10816 10813 10809 10808 10808 10806 10804 10802 10802 10803 10806 10805 10806 10806 10796 10789 10788 10785 10782 10780 10778 10776 10775 10774 10773 10771 10767 10765 10765 10763 10761 10761 10761 10761 10762 10761 10761 10760 10759 10758 10758 10758 10758 10758 10757 10755 10754 10753 10751 10750 10749 10748 10748 10748 10748 10748 10748 10748 10748 10748 10749 10750 10751 10752 10753 10755 10756 10756 10756 10756 10756 10756 10756 10756 10756 10756 10756
10814 10814 10813 10812 10811 10809 10810 10812 10810 10805 10803 10803 10803 10801 10797 10796 10796 10797 10801 10800 10801 10803 10795 10786 10784 10781 10778 10776 10775 10773 10771 10769 10767 10765 10762 10761 10760 10759 10757 10757 10758 10757 10757 10756 10756 10755 10754 10754 10753 10754 10754 10755 10754 10753 10751 10750 10749 10747 10746 10745 10745 10745 10745 10745 10745 10745 10745 10746 10746 10747 10748 10749 10750 10752 10753 10754 10754 10753 10753 10753 10753 10754 10754 10754 10754
10807 10805 10805 10806 10805 10805 10808 10810 10805 10799 10799 10800 10798 10795 10793 10792 10791 10792 10795 10794 10797 10800 10791 10783 10781 10777 10775 10773 10771 10769 10766 10764 10762 10760 10759 10757 10756 10755 10755 10755 10755 10754 10754 10753 10752 10751 10750 10750 10750 10750 10751 10751 10750 10749 10749 10748 10747 10745 10744 10743 10742 10742 10742 10742 10743 10743 10743 10743 10743 10744 10745 10746 10747 10749 10750 10751 10751 10751 10751 10751 10751 10751 10752 10752 10752
10798 10796 10797 10799 10801 10804 10805 10805 10800 10796 10795 10794 10792 10790 10788 10787 10786 10787 10787 10787 10792 10795 10787 10780 10778 10774 10772 10769 10768 10765 10760 10758 10757 10756 10756 10754 10754 10753 10752 10752 10752 10751 10751 10750 10749 10748 10747 10747 10747 10747 10748 10747 10745 10746 10746 10745 10745 10743 10742 10740 10740 10740 10740 10740 10741 10742 10742 10741 10740 10741 10742 10743 10745 10746 10747 10748 10748 10749 10749 10749 10749 10749 10750 10750 10750
10789 10788 10791 10794 10797 10800 10800 10798 10795 10791 10788 10788 10785 10784 10781 10780 10782 10782 10780 10781 10785 10788 10783 10778 10775 10772 10770 10767 10764 10760 10755 10753 10753 10753 10753 10752 10752 10751 10750 10750 10749 10749 10748 10748 10747 10747 10745 10744 10745 10744 10743 10743 10742 10743 10744 10743 10743 10741 10740 10739 10738 10738 10738 10739 10739 10740 10740 10738 10738 10739 10740 10741 10742 10743 10744 10745 10746 10746 10747 10747 10747 10747 10748 10748 10748
10784 10785 10787 10789 10790 10792 10794 10793 10789 10784 10781 10782 10779 10776 10776 10775 10776 10775 10775 10776 10778 10780 10777 10775 10773 10769 10768 10764 10759 10754 10750 10750 10751 10750 10750 10750 10750 10749 10748 10748 10747 10746 10746 10746 10745 10745 10744 10743 10742 10740 10739 10740 10739 10740 10741 10741 10741 10739 10738 10737 10736 10737 10737 10738 10738 10739 10739 10736 10736 10738 10738 10739 10740 10740 10741 10742 10743 10743 10744 10745 10745 10745 10745 10746 10746
10781 10782 10783 10783 10783 10784 10787 10786 10783 10780 10776 10777 10774 10770 10770 10769 10769 10769 10769 10771 10773 10775 10772 10772 10771 10769 10766 10759 10752 10749 10747 10748 10749 10747 10747 10747 10747 10747 10746 10745 10745 10745 10744 10744 10743 10743 10741 10740 10738 10737 10737 10737 10736 10736 10736 10737 10738 10737 10736 10735 10734 10735 10736 10737 10737 10738 10737 10734 10735 10736 10736 10737 10737 10738 10738 10738 10739 10741 10742 10742 10743 10743 10743 10743 10744
10775 10776 10777 10778 10777 10777 10779 10778 10777 10776 10771 10771 10769 10766 10765 10763 10763 10762 10764 10766 10768 10769 10768 10770 10770 10768 10762 10754 10748 10746 10744 10745 10746 10745 10745 10745 10744 10744 10743 10743 10743 10743 10743 10742 10741 10740 10738 10737 10735 10734 10733 10733 10732 10733 10733 10733 10734 10734 10734 10733 10733 10733 10734 10735 10735 10736 10735 10732 10733 10734 10734 10735 10735 10735 10735 10736 10736 10737 10739 10739 10740 10741 10741 10741 10741
10768 10770 10772 10772 10771 10770 10772 10772 10772 10771 10767 10765 10764 10763 10762 10759 10757 10758 10760 10762 10764 10764 10763 10766 10768 10765 10758 10751 10745 10741 10741 10743 10743 10741 10742 10742 10742 10742 10741 10740 10740 10740 10740 10738 10738 10737 10736 10735 10733 10731 10730 10729 10729 10729 10729 10729 10730 10731 10731 10731 10731 10732 10732 10733 10734 10734 10732 10730 10731 10732 10732 10732 10732 10733 10733 10733 10733 10734 10735 10736 10737 10738 10738 10739 10739
10762 10766 10769 10766 10764 10763 10764 10766 10767 10766 10763 10761 10759 10760 10760 10755 10753 10755 10757 10759 10761 10759 10758 10760 10761 10761 10757 10749 10741 10736 10737 10738 10738 10737 10739 10740 10740 10741 10740 10738 10737 10737 10737 10736 10737 10736 10734 10732 10730 10728 10727 10725 10724 10724 10725 10725 10726 10727 10728 10729 10730 10731 10731 10732 10732 10732 10729 10727 10729 10729 10729 10729 10729 10730 10730 10730 10730 10730 10731 10732 10733 10734 10735 10735 10736
10758 10762 10763 10761 10758 10757 10758 10759 10761 10761 10760 10758 10758 10758 10756 10752 10750 10752 10755 10757 10757 10755 10755 10754 10749 10752 10754 10746 10736 10732 10733 10733 10732 10733 10735 10736 10737 10738 10737 10736 10735 10735 10735 10734 10734 10732 10730 10728 10725 10724 10722 10720 10718 10718 10720 10721 10722 10723 10725 10727 10728 10729 10730 10731 10730 10730 10727 10724 10726 10726 10726 10726 10726 10726 10727 10727 10727 10727 10728 10728 10729 10730 10731 10732 10732
10752 10755 10757 10756 10754 10753 10753 10752 10752 10754 10755 10755 10756 10756 10754 10750 10747 10748 10752 10754 10754 10754 10756 10752 10743 10746 10749 10740 10731 10728 10729 10729 10729 10730 10732 10733 10734 10735 10734 10733 10732 10733 10733 10732 10731 10728 10725 10723 10721 10720 10718 10715 10713 10714 10715 10717 10719 10720 10722 10724 10725 10726 10728 10729 10729 10729 10726 10721 10721 10723 10722 10722 10722 10722 10722 10723 10723 10724 10724 10724 10725 10726 10727 10728 10729
10747 10749 10752 10753 10753 10752 10748 10744 10745 10749 10750 10751 10752 10751 10751 10749 10745 10745 10748 10749 10750 10751 10756 10752 10742 10742 10742 10734 10726 10723 10724 10724 10725 10727 10729 10730 10731 10732 10731 10730 10729 10731 10731 10730 10730 10728 10724 10721 10720 10718 10715 10713 10710 10710 10711 10713 10715 10717 10719 10721 10722 10724 10725 10726 10727 10728 10725 10720 10719 10719 10719 10718 10718 10718 10718 10719 10719 10720 10721 10721 10722 10722 10723 10724 10725
10740 10743 10748 10753 10753 10749 10742 10738 10740 10744 10745 10747 10749 10746 10745 10746 10744 10744 10745 10744 10744 10746 10751 10751 10743 10735 10730 10726 10722 10720 10720 10720 10721 10724 10726 10727 10728 10729 10728 10729 10729 10729 10729 10729 10729 10728 10725 10721 10719 10716 10713 10711 10709 10708 10710 10711 10712 10714 10716 10718 10719 10721 10722 10723 10724 10725 10723 10719 10717 10717 10716 10715 10714 10714 10714 10715 10715 10716 10717 10717 10718 10719 10719 10720 10721
10735 10738 10743 10751 10752 10745 10737 10735 10738 10739 10738 10740 10745 10743 10740 10739 10739 10740 10739 10738 10738 10738 10742 10746 10741 10728 10719 10719 10718 10715 10714 10716 10719 10722 10724 10725 10727 10727 10726 10728 10728 10727 10727 10727 10727 10727 10725 10721 10718 10712 10708 10709 10709 10709 10711 10712 10711 10711 10713 10714 10715 10717 10718 10719 10720 10721 10720 10717 10714 10713 10713 10713 10712 10711 10711 10711 10711 10712 10713 10713 10714 10715 10715 10716 10717
10730 10734 10738 10745 10748 10740 10734 10735 10736 10733 10731 10733 10739 10740 10734 10729 10729 10732 10729 10728 10730 10730 10733 10736 10733 10723 10714 10716 10717 10713 10710 10711 10714 10719 10723 10724 10724 10726 10725 10726 10725 10723 10724 10724 10724 10723 10722 10719 10713 10706 10704 10706 10708 10708 10710 10711 10710 10708 10709 10710 10710 10712 10714 10715 10716 10717 10716 10714 10711 10710 10710 10710 10709 10708 10708 10708 10708 10708 10708 10709 10709 10710 10710 10711 10712
10726 10729 10733 10739 10739 10733 10731 10735 10734 10728 10724 10727 10730 10730 10726 10722 10723 10725 10721 10720 10721 10722 10724 10725 10723 10718 10714 10715 10716 10714 10710 10706 10706 10711 10717 10719 10720 10722 10723 10723 10720 10717 10719 10721 10719 10716 10716 10714 10708 10703 10703 10705 10705 10706 10707 10707 10708 10706 10705 10705 10706 10708 10710 10711 10712 10712 10713 10711 10708 10707 10707 10707 10707 10706 10705 10705 10704 10704 10704 10704 10704 10705 10705 10706 10707
10722 10726 10731 10734 10731 10726 10728 10733 10731 10721 10715 10719 10720 10718 10717 10716 10716 10717 10715 10714 10715 10715 10715 10716 10715 10714 10712 10712 10713 10714 10712 10705 10702 10705 10710 10712 10714 10716 10717 10718 10717 10712 10713 10716 10714 10710 10710 10710 10706 10702 10702 10702 10702 10703 10702 10702 10704 10703 10701 10702 10702 10704 10705 10707 10708 10709 10709 10709 10707 10703 10703 10704 10704 10702 10701 10701 10700 10700 10700 10700 10699 10700 10700 10701 10702
10719 10724 10728 10731 10726 10721 10724 10728 10724 10713 10705 10706 10710 10709 10708 10707 10707 10708 10709 10710 10710 10710 10710 10710 10710 10709 10708 10709 10710 10711 10710 10705 10702 10704 10707 10707 10709 10711 10712 10713 10712 10709 10708 10710 10709 10707 10706 10706 10703 10701 10700 10700 10700 10699 10697 10697 10698 10698 10698 10699 10699 10700 10701 10703 10704 10705 10705 10707 10706 10702 10699 10700 10700 10698 10697 10698 10697 10697 10696 10695 10695 10695 10696 10697 10698
10718 10724 10725 10727 10724 10717 10719 10719 10713 10703 10693 10691 10698 10701 10700 10701 10702 10702 10703 10704 10704 10705 10706 10707 10706 10705 10704 10705 10706 10707 10706 10704 10701 10702 10704 10705 10706 10707 10707 10707 10706 10704 10703 10703 10703 10703 10702 10702 10700 10699 10699 10698 10698 10696 10694 10694 10696 10695 10696 10697 10696 10696 10697 10699 10700 10700 10701 10702 10703 10702 10697 10694 10695 10695 10694 10695 10694 10693 10692 10692 10691 10692 10693 10694 10695
10717 10722 10722 10722 10719 10714 10712 10708 10701 10691 10683 10684 10690 10693 10694 10696 10697 10696 10696 10698 10698 10699 10701 10702 10702 10701 10701 10701 10701 10702 10702 10702 10700 10699 10700 10702 10702 10703 10703 10702 10700 10698 10697 10697 10697 10698 10698 10698 10697 10698 10697 10696 10695 10694 10692 10693 10694 10693 10694 10694 10693 10693 10694 10695 10695 10696 10696 10697 10698 10700 10699 10694 10691 10690 10690 10691 10690 10688 10688 10689 10689 10690 10690 10691 10692
10712 10717 10717 10717 10714 10709 10702 10695 10689 10682 10680 10683 10685 10686 10689 10691 10691 10690 10690 10692 10693 10694 10696 10697 10697 10697 10697 10697 10697 10697 10697 10697 10696 10695 10696 10698 10698 10698 10697 10696 10694 10693 10692 10692 10692 10693 10694 10695 10694 10694 10694 10693 10692 10692 10691 10691 10690 10689 10689 10689 10690 10692 10692 10693 10693 10693 10693 10694 10695 10698 10700 10699 10693 10688 10685 10685 10685 10684 10684 10685 10686 10688 10688 10687 10687
10704 10708 10710 10710 10707 10699 10688 10682 10681 10680 10680 10681 10680 10681 10684 10686 10687 10686 10686 10687 10688 10690 10691 10691 10692 10692 10692 10692 10692 10692 10692 10692 10692 10691 10692 10693 10693 10692 10691 10690 10690 10689 10689 10689 10689 10690 10691 10692 10692 10691 10691 10691 10690 10689 10689 10688 10687 10685 10684 10685 10687 10690 10691 10691 10690 10691 10691 10691 10692 10694 10698 10698 10695 10690 10685 10680 10680 10680 10681 10683 10684 10685 10685 10684 10684
10698 10701 10702 10700 10694 10684 10676 10674 10677 10678 10678 10678 10677 10678 10678 10680 10682 10681 10681 10682 10682 10684 10685 10685 10686 10687 10687 10687 10687 10687 10687 10687 10686 10686 10687 10688 10687 10686 10685 10686 10686 10686 10686 10687 10687 10688 10689 10690 10690 10689 10688 10688 10687 10686 10685 10685 10684 10683 10682 10683 10685 10686 10688 10689 10688 10688 10688 10687 10687 10689 10691 10692 10692 10691 10685 10678 10677 10677 10678 10680 10681 10682 10681 10681 10680
10691 10694 10694 10687 10676 10670 10670 10672 10673 10673 10674 10675 10675 10675 10674 10675 10675 10676 10676 10676 10676 10677 10678 10680 10680 10681 10681 10681 10681 10681 10681 10681 10681 10681 10681 10682 10682 10682 10682 10682 10682 10683 10683 10684 10684 10685 10686 10686 10687 10687 10686 10685 10684 10683 10682 10682 10682 10681 10681 10681 10682 10682 10684 10684 10683 10682 10682 10681 10681 10682 10684 10686 10688 10689 10685 10679 10675 10674 10676 10676 10677 10677 10677 10677 10677
10683 10685 10682 10670 10662 10665 10669 10669 10668 10668 10670 10671 10670 10670 10669 10668 10669 10670 10670 10670 10671 10672 10673 10674 10675 10675 10675 10675 10675 10675 10676 10676 10676 10676 10676 10676 10677 10678 10679 10679 10679 10679 10679 10680 10680 10681 10681 10682 10682 10683 10682 10681 10681 10681 10680 10680 10680 10679 10679 10679 10679 10680 10680 10679 10676 10676 10676 10676 10677 10677 10678 10680 10684 10687 10686 10680 10674 10672 10672 10672 10672 10672 10672 10673 10673
10673 10672 10665 10656 10658 10665 10666 10664 10663 10663 10664 10664 10664 10664 10662 10663 10664 10664 10664 10664 10666 10667 10668 10669 10670 10670 10670 10670 10670 10670 10671 10671 10671 10672 10672 10673 10673 10674 10675 10675 10676 10676 10676 10676 10677 10677 10677 10678 10678 10678 10678 10678 10679 10678 10678 10678 10677 10677 10677 10676 10676 10676 10676 10673 10670 10671 10672 10672 10674 10674 10674 10675 10677 10680 10681 10677 10671 10667 10665 10665 10666 10667 10668 10669 10669
10658 10656 10651 10651 10659 10662 10661 10660 10658 10657 10656 10656 10657 10657 10657 10658 10660 10660 10659 10660 10662 10663 10664 10664 10665 10665 10665 10665 10665 10666 10667 10667 10668 10668 10668 10669 10670 10670 10670 10671 10672 10672 10673 10673 10673 10674 10674 10674 10674 10675 10675 10676 10676 10676 10675 10675 10675 10675 10674 10673 10673 10672 10671 10668 10666 10666 10668 10669 10671 10670 10670 10670 10671 10670 10668 10666 10664 10662 10661 10660 10661 10663 10663 10664 10664
10647 10647 10647 10655 10659 10655 10651 10651 10651 10650 10649 10650 10652 10651 10651 10653 10654 10655 10655 10656 10657 10658 10659 10659 10659 10660 10660 10661 10661 10661 10661 10662 10663 10663 10664 10665 10666 10666 10667 10667 10668 10669 10670 10670 10671 10671 10671 10672 10672 10672 10672 10673 10673 10673 10672 10671 10671 10672 10671 10669 10668 10667 10666 10663 10661 10662 10663 10664 10666 10666 10666 10665 10664 10664 10662 10661 10661 10661 10662 10661 10659 10659 10659 10659 10658
10643 10645 10650 10659 10656 10645 10639 10640 10642 10643 10642 10645 10646 10645 10646 10648 10649 10649 10649 10650 10651 10652 10652 10653 10654 10655 10656 10657 10657 10656 10656 10657 10657 10658 10659 10660 10661 10661 10662 10663 10664 10665 10666 10667 10667 10668 10668 10669 10669 10669 10669 10669 10670 10669 10668 10667 10667 10667 10666 10664 10663 10662 10659 10657 10657 10659 10659 10659 10659 10660 10659 10659 10659 10659 10659 10659 10659 10659 10661 10661 10658 10657 10655 10654 10651
10641 10645 10651 10654 10646 10634 10628 10630 10635 10637 10638 10639 10640 10639 10641 10642 10643 10643 10643 10644 10645 10645 10646 10647 10649 10651 10651 10652 10652 10651 10651 10651 10652 10652 10653 10654 10655 10656 10656 10657 10658 10659 10661 10661 10662 10663 10664 10665 10665 10666 10665 10665 10665 10664 10662 10662 10663 10663 10661 10659 10658 10656 10653 10651 10652 10654 10653 10652 10652 10652 10653 10653 10654 10654 10654 10655 10655 10655 10657 10657 10656 10655 10652 10650 10647
10638 10641 10645 10643 10635 10626 10622 10624 10630 10633 10633 10634 10635 10635 10636 10637 10637 10637 10637 10638 10639 10639 10640 10642 10643 10644 10645 10646 10646 10646 10646 10646 10646 10646 10647 10648 10649 10650 10650 10651 10652 10653 10654 10655 10656 10657 10658 10659 10660 10660 10660 10659 10659 10658 10657 10656 10657 10657 10655 10653 10652 10650 10647 10645 10647 10649 10648 10647 10646 10645 10646 10647 10648 10649 10649 10650 10650 10651 10652 10652 10652 10651 10650 10648 10646
10633 10635 10637 10633 10626 10620 10618 10622 10627 10628 10627 10628 10629 10630 10631 10631 10630 10630 10631 10631 10633 10634 10635 10636 10637 10637 10638 10639 10640 10640 10641 10641 10641 10641 10642 10643 10644 10644 10645 10646 10647 10648 10649 10650 10651 10652 10652 10653 10653 10653 10653 10653 10652 10651 10651 10650 10650 10649 10648 10648 10646 10645 10642 10641 10642 10644 10644 10643 10642 10640 10641 10642 10643 10643 10644 10645 10645 10646 10647 10647 10647 10647 10647 10646 10644
10626 10629 10629 10625 10619 10615 10617 10620 10621 10619 10619 10621 10623 10624 10626 10626 10624 10624 10625 10625 10627 10628 10629 10629 10630 10631 10633 10634 10634 10635 10635 10635 10636 10636 10637 10638 10638 10639 10640 10641 10642 10643 10644 10645 10646 10647 10647 10648 10647 10647 10647 10646 10646 10645 10645 10644 10643 10642 10642 10642 10641 10640 10638 10637 10638 10639 10638 10638 10637 10636 10636 10636 10637 10638 10639 10640 10641 10641 10642 10642 10642 10642 10642 10641 10640
10622 10624 10622 10618 10614 10613 10614 10614 10611 10610 10612 10615 10618 10620 10622 10621 10620 10620 10620 10620 10622 10623 10623 10624 10625 10626 10627 10628 10629 10629 10629 10630 10631 10632 10633 10633 10634 10635 10636 10637 10638 10639 10640 10641 10642 10642 10642 10642 10642 10641 10641 10640 10640 10639 10639 10638 10637 10636 10636 10636 10636 10635 10634 10633 10633 10633 10633 10632 10632 10632 10632 10633 10633 10634 10635 10636 10636 10637 10637 10637 10636 10637 10637 10637 10636